TimeHST,TemperatureF,Dew PointF,Humidity,Sea Level PressureIn,VisibilityMPH,Wind Direction,Wind SpeedMPH,Gust SpeedMPH,PrecipitationIn,Events,Conditions,WindDirDegrees,DateUTC
12:26 AM,68.0,62.6,83,30.05,10.0,West,8.1,-,N/A,,Partly Cloudy,280,2012-11-30 10:26:00
12:53 AM,68.0,62.1,81,30.04,10.0,West,6.9,-,N/A,,Clear,280,2012-11-30 10:53:00
1:53 AM,68.0,62.1,81,30.03,10.0,West,8.1,-,N/A,,Mostly Cloudy,280,2012-11-30 11:53:00
2:53 AM,68.0,62.1,81,30.02,10.0,West,8.1,-,N/A,,Scattered Clouds,280,2012-11-30 12:53:00
3:53 AM,66.9,62.1,84,30.01,10.0,WNW,6.9,-,N/A,,Partly Cloudy,290,2012-11-30 13:53:00
4:53 AM,68.0,62.1,81,30.01,10.0,WNW,8.1,-,N/A,,Clear,290,2012-11-30 14:53:00
5:53 AM,66.9,61.0,81,30.01,10.0,West,6.9,-,N/A,,Clear,260,2012-11-30 15:53:00
6:53 AM,64.9,60.1,84,30.03,10.0,WSW,6.9,-,N/A,,Partly Cloudy,240,2012-11-30 16:53:00
7:53 AM,69.1,63.0,81,30.03,10.0,West,6.9,-,N/A,,Clear,280,2012-11-30 17:53:00
8:53 AM,73.9,64.9,73,30.04,10.0,West,5.8,-,N/A,,Scattered Clouds,280,2012-11-30 18:53:00
9:53 AM,79.0,66.9,66,30.05,10.0,South,10.4,-,N/A,,Partly Cloudy,180,2012-11-30 19:53:00
10:53 AM,80.1,66.9,64,30.05,10.0,South,12.7,-,N/A,,Clear,180,2012-11-30 20:53:00
11:53 AM,80.1,64.9,60,30.03,10.0,South,13.8,-,N/A,,Partly Cloudy,180,2012-11-30 21:53:00
12:53 PM,81.0,64.9,58,30.01,10.0,South,13.8,-,N/A,,Clear,180,2012-11-30 22:53:00
1:53 PM,81.0,64.9,58,29.98,10.0,South,13.8,-,N/A,,Clear,180,2012-11-30 23:53:00
2:53 PM,80.1,64.9,60,29.98,10.0,South,12.7,-,N/A,,Clear,180,2012-12-01 00:53:00
3:53 PM,78.1,64.9,64,29.98,10.0,South,13.8,-,N/A,,Clear,180,2012-12-01 01:53:00
4:53 PM,77.0,64.9,66,29.98,10.0,South,10.4,-,N/A,,Clear,190,2012-12-01 02:53:00
5:53 PM,75.9,64.9,69,30.00,10.0,SSW,6.9,-,N/A,,Clear,210,2012-12-01 03:53:00
6:53 PM,75.0,64.9,71,30.02,10.0,SW,5.8,-,N/A,,Clear,220,2012-12-01 04:53:00
7:53 PM,73.0,64.9,76,30.04,10.0,WSW,4.6,-,N/A,,Clear,240,2012-12-01 05:53:00
8:53 PM,72.0,64.9,78,30.06,10.0,West,5.8,-,N/A,,Clear,270,2012-12-01 06:53:00
9:53 PM,71.1,64.0,78,30.06,10.0,WNW,6.9,-,N/A,,Clear,290,2012-12-01 07:53:00
10:53 PM,70.0,64.0,81,30.06,10.0,West,8.1,-,N/A,,Clear,280,2012-12-01 08:53:00
11:53 PM,69.1,62.1,78,30.05,10.0,WSW,4.6,-,N/A,,Clear,250,2012-12-01 09:53:00